User: anonymous   Login
Location: Gombori
(14.9797°N, 2.9419°W)
Time: 15:24:21
(UTC+00:00)
Language:

Cosmos 2298 Rocket - Orbit

View from above orbital plane
View from above orbital plane
View from above satellite
View from above satellite

Ground track
Ground track

The orbit data is extracted from the following two-line orbital elements,

1 23432U 94083B   21291.41870694  .00000015  00000-0  15033-4 0  9994
2 23432  74.0302 280.7469 0004081 110.0982  42.3511 14.33568934403315
Epoch (UTC): 18 October 2021 10:02:56
Eccentricity: 0.0004081
inclination: 74.0302°
perigee height: 777 km
apogee height: 783 km
right ascension of ascending node: 280.7469°
argument of perigee: 110.0982°
revolutions per day: 14.33568934
mean anomaly at epoch: 42.3511°
orbit number at epoch: 40331

The dashed part of the orbit path shows where the satellite is in the earth's shadow,  

DLR